CZ-2C R/B

Satellite information

Favourite Embed

Satellite Type and Status

ROCKET BODYIN ORBIT

Key statistics

Satellite CZ-2C R/B at a glance.

Uptime

4534

Days in orbit

Revolutions

≈ 14.6

Per day

Orbit

SSO

Sun Synchronous Orbit

Inclination

98.3

Latest

Satellite identification and parameters

Extended collection of information and parameters for CZ-2C R/B.

Object identification

Identified? True

Debris? False

Object name: CZ-2C R/B

International designator: 2013-035B

Object number (NORAD): 39203

Object ID (CCSDS): 39203

Country: PEOPLES REPUBLIC OF CHINA (PRC)

Current information (Y/N): Y

RCS size: LARGE

Orbital parameters

Period: 98.85 minutes

Inclination: 98.3348 deg

SMA: 7081.799 km

Apoapsis: 738.884 km

Periapsis: 668.444 km

RAAN: 207.5263 deg

Eccentricy: 0.00497334

Argument of periapsis: 357.3948 deg

Mean anomaly: 2.6984 deg

Mean motion: 14.56757883 rev/day

Mean motion (dot): 0.00000701 rev/day2

B* drag term: 0.00016495767 1/REarth

Two-line elements (TLE)

Creation date: Dec. 12, 2025, 10:14 a.m.

Reference frame: TEME

Reference center: EARTH

Epoch: Dec. 12, 2025, 5:06 a.m. UTC

TLE line 0: 0 CZ-2C R/B

TLE line 1: 1 39203U 13035B 25346.21301885 .00000701 00000-0 16496-3 0 9994

TLE line 2: 2 39203 98.3348 207.5263 0049733 357.3948 2.6984 14.56757883659074

Live tracking on map

Real-time ground track for satellite CZ-2C R/B.

In-orbit conjunctions

A list of the most updated potential collisions computed for object CZ-2C R/B.

Target Orbit TCA Probability of collision Miss distance Type
COSMOS 2251 DEB LEO 2025-09-04 21:31:55 0.0004259028 207.0 (m) DEBRIS
IRIDIUM 33 DEB LEO 2025-06-26 20:03:11 0.0005685328 263.0 (m) DEBRIS
CZ-6A DEB SSO 2025-04-16 16:32:48 0.0003177853 147.0 (m) DEBRIS
DMSP 5D-2 F13 DEB SSO 2025-03-02 03:06:33 0.0001178247 296.0 (m) DEBRIS
DELTA 1 DEB SSO 2025-01-27 03:43:30 0.000130066 887.0 (m) DEBRIS

Associated space launch

CZ-2C R/B was lifted into orbit during the mission ‘Long March 2C | Shijian 11-05’, on board a Long March 2 space rocket.

The launch took place on July 15, 2013, 9:27 a.m. from Launch Area 94 (SLS-2 / 603).

For more information about the launch, click the button.

Launch to space Long March 2C | Shijian 11-05
Long March 2C | Shijian 11-05

Agency: N/A

Status: Launch Successful

Launch date: July 15, 2013, 9:27 a.m. UTC

Rocket: Long March 2

Launch pad: Launch Area 94 (SLS-2 / 603)

Location: Jiuquan Satellite Launch Center, People's Republic of China

...

Latest news about this satellite

There are no fresh news available about this satellite. Check back as we update our databases every day.


Newsletter sign-up

Weekly statistics, charts and insights to help you stay on top of the space industry.